Location: Amherst
(42.5000°N, 72.5000°W)
Time: 07:56:26
(UTC-04:00)

ISS - Pass Details

Date: 16 July 2018
Orbit: 402 x 408 km, 51.6° (Epoch: 21 July)

Event Time Altitude Azimuth Distance (km) Brightness Sun altitude
Rises 04:18:42 0° 306° (NW) 2,333 -0.1 -10.9°
Reaches altitude 10° 04:21:00 10° 320° (NW) 1,472 -1.0 -10.6°
Maximum altitude 04:23:51 26° 20° (NNE) 837 -1.5 -10.2°
Drops below altitude 10° 04:26:42 10° 80° (E) 1,469 0.0 -9.8°
Sets 04:29:00 0° 93° (E) 2,329 0.8 -9.5°
